{"data":{"norad_id":67554,"intl_designator":"2026-014Y","name":"STARLINK-36395","alt_names":[],"object_type":"PAYLOAD","status":"ACTIVE","operator":null,"country":"US","launch_date":"2026-01-22","launch_site_code":"AFWTR","launch_vehicle":null,"mission":null,"orbit_class":"UNKNOWN","rcs_meters":null,"size_class":null,"mass_kg":null,"dimensions":null,"purposes":["comms"],"wikipedia_slug":null,"has_3d_model":false,"image_url":null,"decayed_at":null,"tle_current":{"epoch":"2026-05-25T04:25:42.763008Z","epoch_age_seconds":59880,"freshness":"FRESH","line1":"1 67554U 26014Y   26145.18452272  .00199212  00000+0  13065-2 0  9999","line2":"2 67554  97.2869  33.8664 0001279  98.8995 261.2415 15.75173624 20607","mean_motion":15.75173624,"eccentricity":0.0001279,"inclination_deg":97.2869,"raan_deg":33.8664,"arg_perigee_deg":98.8995,"mean_anomaly_deg":261.2415,"bstar":0.0013065,"rev_number":2060,"period_min":91.418493686001,"perigee_km":343.27738066681,"apogee_km":344.99693839682,"semimajor_km":6722.2741595318,"source":"CELESTRAK","updated_at":"2026-05-25T13:38:21.611662Z"}}}